Home > Weather > Bludenz > Past weeks

Flag for Austria Past Weather in Bludenz, Vorarlberg, Austria — Yesterday and Last 2 Weeks

Now
83 °F

Warm.


Feels Like: 85 °F
Forecast: 61 / 79 °F
Wind: 1 mph from Northwest

Location: Feldkirch

Current Time: Aug 28, 2016 at 12:51:01 PM

Latest Report: Aug 28, 2016 at 12:00 PM


Visibility: N/A

Pressure: 30.01 "Hg (28.16 "Hg at 563m altitude)

Humidity: 54%

Dew Point: 65 °F

Location of BludenzLocation

Past Weather in Bludenz — Graph

°F

Bludenz Temperature Yesterday

Maximum temperature yesterday: 85 °F (at 2:00 PM)
Minimum temperature yesterday: 62 °F (at 7:00 AM)
Average temperature yesterday: 75 °F

High & Low Weather Summary for the Past Weeks

 TemperatureHumidityPressure
High87 °F (Aug 26, 3:00 PM)98% (Aug 25, 7:00 AM)30.39 "Hg (Aug 25, 7:00 AM)
Low53 °F (Aug 23, 6:00 AM)50% (Aug 13, 3:00 PM)29.77 "Hg (Aug 18, 2:00 PM)
Average69 °F74%30.05 "Hg
* Reported Aug 13 11:00 AM — Aug 28 11:00 AM, Bludenz, Weather by CustomWeather, © 2016

Note: Actual official high and low records may vary slightly from our data, if they occured in-between our weather recording intervals... More about our weather records

Advertising

Bludenz Weather History for the Previous 24 Hours

Scroll right to see more
 ConditionsComfort  
Time TempWeatherWind HumidityBarometerVisibility
11:00 AM
Sun, Aug 28
79 °FPassing clouds.1 mph58%30.04 "Hg16 mi
10:00 AM76 °FMild.1 mph62%30.05 "HgN/A
9:00 AM70 °FMild.No wind71%30.06 "HgN/A
8:00 AM68 °FMild.1 mph75%30.06 "HgN/A
7:00 AM65 °FMild.1 mph85%30.06 "HgN/A
6:00 AM67 °FMild.1 mph80%30.05 "HgN/A
5:00 AM69 °FMild.1 mph74%30.04 "HgN/A
4:00 AM68 °FMild.1 mph77%30.03 "HgN/A
3:00 AM69 °FMild.No wind76%30.04 "HgN/A
2:00 AM70 °FMild.No wind71%30.04 "HgN/A
1:00 AM70 °FMild.1 mph70%30.03 "HgN/A
12:00 AM74 °FMild.1 mph59%30.01 "HgN/A
11:00 PM
Sat, Aug 27
75 °FMild.2 mph59%30.01 "HgN/A
10:00 PM72 °FMild.1 mph76%30.01 "HgN/A
9:00 PM75 °FMild.No wind77%29.99 "HgN/A
8:00 PM78 °FWarm.No wind69%29.96 "HgN/A
7:00 PM82 °FWarm.1 mph61%29.94 "HgN/A
6:00 PM84 °FWarm.1 mph58%29.95 "HgN/A
5:00 PM85 °FWarm.3 mph58%29.96 "HgN/A
4:00 PM85 °FWarm.2 mph57%29.96 "HgN/A
3:00 PM85 °FWarm.2 mph55%29.97 "HgN/A
2:00 PM85 °FWarm.1 mph51%29.99 "HgN/A
1:00 PM83 °FWarm.1 mph51%30.01 "HgN/A
12:00 PM81 °FWarm.1 mph53%30.03 "HgN/A
Weather by CustomWeather, © 2016

See weather overviewHow to use our weather pages